| time (UTC) | temp F | wind direction | speed MPH | gust MPH | rain 1hr in | rain 24hr in | rain mn in | humidity % | barometer mb |
| 20260502163619 | 60 | 115 | 4.0 | 7.0 | 0.00 | 0.00 | 0.00 | 38 | 1020.8 |
| 20260502162628 | 59 | 58 | 2.0 | 5.0 | 0.00 | 0.00 | 0.00 | 39 | 1020.9 |
| 20260502161621 | 58 | 17 | 3.0 | 6.0 | 0.00 | 0.00 | 0.00 | 41 | 1020.9 |
| 20260502160629 | 58 | 11 | 3.0 | 6.0 | 0.00 | 0.00 | 0.00 | 41 | 1020.8 |
| 20260502151624 | 54 | 34 | 5.0 | 8.0 | 0.00 | 0.00 | 0.00 | 45 | 1021.1 |
| 20260502150613 | 54 | 47 | 4.0 | 8.0 | 0.00 | 0.00 | 0.00 | 44 | 1021.1 |
| 20260502130637 | 45 | 319 | 6.0 | 9.0 | 0.00 | 0.00 | 0.00 | 57 | 1020.7 |
| 20260502123615 | 41 | 360 | 3.0 | 9.0 | 0.00 | 0.00 | 0.00 | 64 | 1020.6 |
| 20260502122623 | 38 | 333 | 5.0 | 8.0 | 0.00 | 0.00 | 0.00 | 72 | 1020.5 |
| 20260502121632 | 38 | 346 | 4.0 | 6.0 | 0.00 | 0.00 | 0.00 | 72 | 1020.4 |
| 20260502120626 | 39 | 36 | 4.0 | 5.0 | 0.00 | 0.00 | 0.00 | 71 | 1020.4 |
| 20260502115627 | 38 | 338 | 4.0 | 8.0 | 0.00 | 0.00 | 0.00 | 70 | 1020.4 |
| 20260502114637 | 38 | 355 | 4.0 | 5.0 | 0.00 | 0.00 | 0.00 | 68 | 1020.4 |
| 20260502113626 | 42 | 36 | 4.0 | 6.0 | 0.00 | 0.00 | 0.00 | 59 | 1020.4 |
| 20260502112618 | 47 | 10 | 2.0 | 8.0 | 0.00 | 0.00 | 0.00 | 51 | 1020.2 |
| 20260502111627 | 45 | 288 | 6.0 | 8.0 | 0.00 | 0.00 | 0.00 | 55 | 1020.3 |
| 20260502110616 | 42 | 340 | 6.0 | 11.0 | 0.00 | 0.00 | 0.00 | 62 | 1020.4 |
| 20260502105636 | 45 | 13 | 5.0 | 8.0 | 0.00 | 0.00 | 0.00 | 54 | 1020.3 |
| 20260502104623 | 49 | 286 | 3.0 | 10.0 | 0.00 | 0.00 | 0.00 | 46 | 1020.2 |
| 20260502103615 | 48 | 278 | 6.0 | 10.0 | 0.00 | 0.00 | 0.00 | 49 | 1020.2 |
| 20260502102625 | 46 | 278 | 2.0 | 8.0 | 0.00 | 0.00 | 0.00 | 52 | 1020.2 |
| 20260502101614 | 46 | 275 | 2.0 | 8.0 | 0.00 | 0.00 | 0.00 | 53 | 1020.3 |
| 20260502100628 | 46 | 281 | 3.0 | 7.0 | 0.00 | 0.00 | 0.00 | 54 | 1020.2 |
| 20260502090614 | 46 | 360 | 2.0 | 5.0 | 0.00 | 0.00 | 0.00 | 55 | 1020.2 |
| 20260502070631 | 41 | 343 | 5.0 | 6.0 | 0.00 | 0.00 | 0.00 | 67 | 1020.2 |
| 20260502065629 | 45 | 28 | 3.0 | 6.0 | 0.00 | 0.00 | 0.00 | 58 | 1020.1 |
| 20260502064624 | 47 | 323 | 4.0 | 6.0 | 0.00 | 0.00 | 0.00 | 54 | 1020.0 |
| 20260502063614 | 48 | 355 | 4.0 | 6.0 | 0.00 | 0.00 | 0.00 | 52 | 1019.9 |
| 20260502062624 | 47 | 12 | 4.0 | 6.0 | 0.00 | 0.00 | 0.00 | 54 | 1019.8 |
| 20260502061612 | 50 | 340 | 5.0 | 8.0 | 0.00 | 0.00 | 0.00 | 48 | 1019.7 |
| 20260502060614 | 51 | 290 | 5.0 | 8.0 | 0.00 | 0.00 | 0.00 | 44 | 1019.7 |
| 20260502055613 | 50 | 269 | 6.0 | 10.0 | 0.00 | 0.00 | 0.00 | 46 | 1019.6 |
| 20260502054621 | 47 | 302 | 3.0 | 8.0 | 0.00 | 0.00 | 0.00 | 52 | 1019.6 |
| 20260502053628 | 44 | 344 | 2.0 | 5.0 | 0.00 | 0.00 | 0.00 | 62 | 1019.6 |
| 20260502052614 | 44 | 343 | 3.0 | 8.0 | 0.00 | 0.00 | 0.00 | 65 | 1019.6 |
| 20260502051627 | 44 | 355 | 4.0 | 8.0 | 0.00 | 0.00 | 0.00 | 64 | 1019.5 |
| 20260502050615 | 45 | 355 | 3.0 | 6.0 | 0.00 | 0.00 | 0.00 | 59 | 1019.4 |
| 20260502045613 | 48 | 360 | 4.0 | 6.0 | 0.00 | 0.00 | 0.00 | 53 | 1019.4 |
| 20260502044620 | 47 | 360 | 3.0 | 5.0 | 0.00 | 0.00 | 0.00 | 54 | 1019.3 |
| 20260502043613 | 50 | 350 | 2.0 | 4.0 | 0.00 | 0.00 | 0.00 | 46 | 1019.3 |
| 20260502042621 | 51 | 346 | 3.0 | 5.0 | 0.00 | 0.00 | 0.00 | 45 | 1019.3 |
| 20260502041628 | 49 | 321 | 1.0 | 4.0 | 0.00 | 0.00 | 0.00 | 48 | 1019.3 |
| 20260502040621 | 48 | 337 | 0.0 | 3.0 | 0.00 | 0.00 | 0.00 | 51 | 1019.2 |
| 20260502035620 | 49 | 331 | 1.0 | 4.0 | 0.00 | 0.00 | 0.00 | 52 | 1019.2 |
| 20260502034627 | 51 | 22 | 4.0 | 5.0 | 0.00 | 0.00 | 0.00 | 46 | 1019.0 |
| 20260502033618 | 52 | 19 | 3.0 | 5.0 | 0.00 | 0.00 | 0.00 | 45 | 1018.9 |
| 20260502032631 | 54 | 355 | 3.0 | 6.0 | 0.00 | 0.00 | 0.00 | 38 | 1018.8 |
| 20260502031642 | 56 | 21 | 3.0 | 5.0 | 0.00 | 0.00 | 0.00 | 35 | 1018.6 |
| 20260502030631 | 58 | 252 | 4.0 | 7.0 | 0.00 | 0.00 | 0.00 | 29 | 1018.4 |
| 20260502025612 | 58 | 289 | 4.0 | 7.0 | 0.00 | 0.00 | 0.00 | 28 | 1018.3 |
| 20260502024639 | 58 | 262 | 4.0 | 7.0 | 0.00 | 0.00 | 0.00 | 29 | 1018.2 |
| 20260502023631 | 58 | 263 | 3.0 | 7.0 | 0.00 | 0.00 | 0.00 | 28 | 1018.2 |
| 20260502022620 | 59 | 261 | 3.0 | 7.0 | 0.00 | 0.00 | 0.00 | 29 | 1018.2 |
| 20260502021631 | 59 | 276 | 4.0 | 7.0 | 0.00 | 0.00 | 0.00 | 29 | 1018.1 |
| 20260502020620 | 59 | 269 | 4.0 | 8.0 | 0.00 | 0.00 | 0.00 | 30 | 1018.1 |
| 20260502015623 | 61 | 277 | 4.0 | 6.0 | 0.00 | 0.00 | 0.00 | 30 | 1018.1 |
| 20260502014631 | 63 | 265 | 4.0 | 6.0 | 0.00 | 0.00 | 0.00 | 28 | 1018.1 |
| 20260502013622 | 65 | 259 | 3.0 | 6.0 | 0.00 | 0.00 | 0.00 | 28 | 1018.1 |
| 20260502012615 | 67 | 319 | 2.0 | 4.0 | 0.00 | 0.00 | 0.00 | 23 | 1018.1 |
| 20260502011624 | 68 | 314 | 3.0 | 4.0 | 0.00 | 0.00 | 0.00 | 21 | 1018.0 |
| 20260502010614 | 68 | 310 | 2.0 | 5.0 | 0.00 | 0.00 | 0.00 | 20 | 1018.1 |
| 20260502005652 | 68 | 305 | 3.0 | 9.0 | 0.00 | 0.00 | 0.00 | 20 | 1018.1 |
| 20260502004619 | 68 | 317 | 5.0 | 9.0 | 0.00 | 0.00 | 0.00 | 19 | 1018.1 |
| 20260502003632 | 67 | 279 | 3.0 | 7.0 | 0.00 | 0.00 | 0.00 | 18 | 1018.2 |
| 20260502002620 | 67 | 340 | 5.0 | 8.0 | 0.00 | 0.00 | 0.00 | 20 | 1018.2 |
| 20260502001628 | 67 | 61 | 5.0 | 9.0 | 0.00 | 0.00 | 0.00 | 23 | 1018.2 |
| 20260502000619 | 67 | 92 | 4.0 | 6.0 | 0.00 | 0.00 | 0.00 | 19 | 1018.3 |
| 20260501235620 | 67 | 55 | 3.0 | 8.0 | 0.00 | 0.00 | 0.00 | 20 | 1018.3 |
| 20260501234612 | 67 | 46 | 3.0 | 10.0 | 0.00 | 0.00 | 0.00 | 22 | 1018.4 |
| 20260501233642 | 67 | 20 | 2.0 | 6.0 | 0.00 | 0.00 | 0.00 | 22 | 1018.4 |
| 20260501232631 | 67 | 73 | 3.0 | 9.0 | 0.00 | 0.00 | 0.00 | 26 | 1018.5 |
| 20260501231626 | 67 | 144 | 1.0 | 9.0 | 0.00 | 0.00 | 0.00 | 20 | 1018.4 |
| 20260501230616 | 67 | 57 | 6.0 | 12.0 | 0.00 | 0.00 | 0.00 | 21 | 1018.5 |
| 20260501225617 | 67 | 13 | 4.0 | 9.0 | 0.00 | 0.00 | 0.00 | 20 | 1018.6 |
| 20260501224646 | 67 | 44 | 4.0 | 9.0 | 0.00 | 0.00 | 0.00 | 21 | 1018.7 |
| 20260501223618 | 67 | 47 | 6.0 | 9.0 | 0.00 | 0.00 | 0.00 | 18 | 1018.8 |
| 20260501222628 | 67 | 342 | 1.0 | 10.0 | 0.00 | 0.00 | 0.00 | 19 | 1018.9 |
| 20260501221619 | 66 | 22 | 2.0 | 6.0 | 0.00 | 0.00 | 0.00 | 21 | 1019.0 |
| 20260501220614 | 66 | 85 | 2.0 | 8.0 | 0.00 | 0.00 | 0.00 | 20 | 1019.2 |
| 20260501215615 | 66 | 60 | 5.0 | 12.0 | 0.00 | 0.00 | 0.00 | 21 | 1019.3 |
| 20260501214626 | 66 | 62 | 2.0 | 8.0 | 0.00 | 0.00 | 0.00 | 23 | 1019.4 |
| 20260501213616 | 65 | 80 | 3.0 | 11.0 | 0.00 | 0.00 | 0.00 | 26 | 1019.6 |
| 20260501212630 | 65 | 33 | 5.0 | 13.0 | 0.00 | 0.00 | 0.00 | 26 | 1019.6 |
| 20260501211620 | 65 | 59 | 8.0 | 13.0 | 0.00 | 0.00 | 0.00 | 26 | 1019.6 |
| 20260501210628 | 65 | 28 | 3.0 | 12.0 | 0.00 | 0.00 | 0.00 | 24 | 1019.8 |
| 20260501205628 | 65 | 61 | 8.0 | 13.0 | 0.00 | 0.00 | 0.00 | 25 | 1019.8 |
| 20260501204620 | 65 | 44 | 5.0 | 12.0 | 0.00 | 0.00 | 0.00 | 24 | 1019.9 |
| 20260501203627 | 64 | 5 | 4.0 | 13.0 | 0.00 | 0.00 | 0.00 | 28 | 1020.0 |
| 20260501202615 | 64 | 65 | 6.0 | 16.0 | 0.00 | 0.00 | 0.00 | 30 | 1020.0 |
| 20260501201625 | 64 | 14 | 4.0 | 12.0 | 0.00 | 0.00 | 0.00 | 30 | 1020.1 |
| 20260501200618 | 63 | 70 | 9.0 | 13.0 | 0.00 | 0.00 | 0.00 | 28 | 1020.1 |
| 20260501195618 | 63 | 300 | 5.0 | 11.0 | 0.00 | 0.00 | 0.00 | 25 | 1020.3 |
| 20260501194646 | 63 | 348 | 6.0 | 12.0 | 0.00 | 0.00 | 0.00 | 27 | 1020.3 |
| 20260501193614 | 63 | 342 | 7.0 | 12.0 | 0.00 | 0.00 | 0.00 | 24 | 1020.4 |
| 20260501192627 | 63 | 24 | 7.0 | 11.0 | 0.00 | 0.00 | 0.00 | 30 | 1020.3 |
| 20260501191615 | 62 | 94 | 2.0 | 9.0 | 0.00 | 0.00 | 0.00 | 30 | 1020.6 |
| 20260501190622 | 62 | 71 | 6.0 | 11.0 | 0.00 | 0.00 | 0.00 | 29 | 1020.7 |
| 20260501185622 | 62 | 44 | 5.0 | 16.0 | 0.00 | 0.00 | 0.00 | 31 | 1020.7 |
| 20260501184635 | 61 | 26 | 3.0 | 10.0 | 0.00 | 0.00 | 0.00 | 28 | 1020.8 |
| 20260501183623 | 61 | 123 | 2.0 | 12.0 | 0.00 | 0.00 | 0.00 | 30 | 1020.9 |
| 20260501182633 | 61 | 104 | 6.0 | 9.0 | 0.00 | 0.00 | 0.00 | 31 | 1021.0 |
| 20260501181620 | 60 | 51 | 5.0 | 14.0 | 0.00 | 0.00 | 0.00 | 30 | 1021.1 |
| 20260501180628 | 61 | 51 | 8.0 | 14.0 | 0.00 | 0.00 | 0.00 | 30 | 1021.2 |
| 20260501175630 | 60 | 46 | 6.0 | 13.0 | 0.00 | 0.00 | 0.00 | 29 | 1021.3 |
| 20260501174617 | 59 | 72 | 7.0 | 10.0 | 0.00 | 0.00 | 0.00 | 29 | 1021.3 |
| 20260501173645 | 59 | 73 | 7.0 | 14.0 | 0.00 | 0.00 | 0.00 | 30 | 1021.4 |
| 20260501172631 | 59 | 73 | 2.0 | 10.0 | 0.00 | 0.00 | 0.00 | 32 | 1021.4 |